Weather Roundup
Issued by NWS Chicago, IL

Home | Current Version | Previous Version | Graphics & Text | Print | Product List | Glossary On
Versions: 1 2 3 4 5 6 7 8 9 10 11 12 13 14 15 16 17 18 19 20 21 22 23 24 25 26 27 28 29 30 31 32 33 34 35 36 37 38 39 40 41 42 43 44 45 46 47 48 49 50
043
NZUS59 KLOT 021903
HRRLOT

CHICAGO AREA WEATHER ROUNDUP
NATIONAL WEATHER SERVICE CHICAGO/ROMEOVILLE IL
200 PM CDT MON MAY 02 2016

NOTE: "FAIR" INDICATES FEW OR NO CLOUDS BELOW 12,000 FEET WITH NO
SIGNIFICANT WEATHER AND/OR OBSTRUCTIONS TO VISIBILITY.

* THESE STATIONS ARE NOT UNDER NWS QUALITY CONTROL. THEY ALSO MAY NOT
  REPORT WEATHER SUCH AS PRECIPITATION OR FOG.

ILZ005-006-012>014-019>023-022000-
NORTHEAST ILLINOIS

CITY           SKY/WX    TMP DP  RH WIND       PRES   REMARKS
OHARE          PTSUNNY   57  36  45 NE17G24   30.05S
MIDWAY         MOSUNNY   56  34  43 NE18      30.05S
AURORA         SUNNY     62  40  44 NE16G24   30.04F
LANSING*       SUNNY     54  40  60 N12       30.05F
WAUKEGAN       SUNNY     57  36  45 NE16      30.05S
DUPAGE AIRPORT SUNNY     60  36  40 NE12G26   30.03F
WHEELING       SUNNY     56  35  45 E14G20    30.07S
$$

WIZ051-052-058>065-066-070>072-022000-
SOUTHEAST WISCONSIN

CITY           SKY/WX    TMP DP  RH WIND       PRES   REMARKS
MILWAUKEE      PTSUNNY   55  36  48 NE13      30.07S
KENOSHA*       SUNNY     60  38  43 NE15      30.06S
RACINE*        MOSUNNY   56  36  47 N12       30.08S
BURLINGTON     CLOUDY    59  33  36 NE13      30.05F
WAUKESHA       PTSUNNY   57  30  35 NE9G17    30.06S
$$

INZ001>003-010>013-019-020-022000-
NORTHWEST INDIANA

CITY           SKY/WX    TMP DP  RH WIND       PRES   REMARKS
GARY*          MOSUNNY   52  45  76 N8G23     30.07S
MICHIGAN CITY* NOT AVBL
RENSSELAER*    NOT AVBL
VALPARAISO     CLOUDY    51  44  77 N8        30.03F
$$

LMZ740>746-022000-
SOUTHERN LAKE MICHIGAN

STATION/POSITION TIME  SKY/WX   TEMP WIND        PRES    VSBY
                                AIR  DIR/SP/G
                 (UTC)          (F)  (DEG/KT/KT) (MB)    (MI)
HARRISON CRIB    1800            45  350/ 11/ 12   N/A
BURNHAM HARBOR   1900            49  340/ 10/ 13   N/A
CALUMET HARBOR   1800            47  350/ 12/ 16 1017.4R
BURNS HARBOR     1825            45   10/ 11/ 15 1018.3S
MICHIGAN CITY    1800            45  350/ 14/ 14   N/A
$$

ABBREVIATIONS USED IN REMARKS
   TC - TEMPERATURE IN CELSIUS
  WCI - WIND CHILL INDEX
   HX - HEAT INDEX
  VSB - VISIBILITY
$$




USA.gov is the U.S. government's official web portal to all federal, state and local government web resources and services.